[[{"header":{"parameterUnit":"m.s-1","parameterCategory":1,"la1":30.2991,"la2":30.254,"lo1":-89.0895,"lo2":-89.0444,"dy":0.0017,"dx":0.0017,"nx":28,"ny":28,"refTime":"2024-08-22T21:00:00:Z","depth":0,"parameterNumber":2,"parameterNumberName":"U-component_of_WINDS"},"data":[0,0,0,0,0,0,0,0,0,0,0,0,0,0,0,0,0,0,0,0,0,0,0,0,0,0,0,0,0,0,0,0,0,0,0,0,0,0,0,0,0,0,0,0,0,0,0,0,0,0,0,0,0,0,0,0,0,0,-4.8335,-4.8334,0,-4.8256,-4.8255,-4.8254,-4.8064,-4.806,-4.8056,-4.8052,-4.7978,-4.798,-4.7981,0,0,0,0,0,0,0,0,0,0,0,0,0,-4.8328,-4.833,-4.8335,-4.8334,-4.8333,-4.8256,-4.8255,-4.8254,-4.8065,-4.806,-4.8055,-4.8051,-4.7977,-4.7979,-4.7982,0,0,0,0,0,0,0,0,0,0,0,0,0,-4.8299,-4.833,-4.8335,-4.8229,-4.8219,-4.8256,-4.8255,-4.8254,-4.8066,-4.806,-4.8054,-4.8048,-4.7977,-4.7979,-4.7982,-4.8118,0,0,-4.799,-4.7991,0,0,0,0,0,0,0,0,-4.8301,-4.8299,-4.8246,-4.8236,-4.8225,-4.8164,-4.8225,-4.8208,-4.8067,-4.8124,-4.8052,-4.8045,-4.8045,-4.8042,-4.804,-4.8114,-4.8111,-4.799,-4.7992,-4.7993,-4.7993,0,0,0,0,0,0,0,-4.8303,-4.8302,-4.8304,-4.8245,-4.8233,-4.8188,-4.8177,-4.8221,-4.8119,-4.8119,-4.8105,-4.8098,-4.8038,-4.8038,-4.8037,-4.811,-4.799,-4.7992,-4.7994,-4.7995,-4.8292,-4.8298,0,0,0,0,0,0,-4.832,-4.8305,-4.8306,-4.8301,-4.8249,-4.8193,-4.8181,-4.819,-4.8118,-4.8102,-4.8103,-4.8089,-4.8037,-4.8034,-4.8034,-4.8187,-4.7993,-4.7995,-4.7997,-4.8285,-4.8293,-4.83,0,0,0,0,0,0,-4.832,-4.8321,-4.8309,-4.8299,-4.8294,-4.8199,-4.8211,-4.8191,-4.819,-4.8106,-4.8088,-4.8121,-4.8032,-4.803,-4.8098,-4.8181,-4.7996,-4.7999,-4.8278,-4.8288,-4.8296,-4.8495,0,0,0,0,0,0,-4.8321,-4.8323,-4.8372,-4.8302,-4.8295,-4.8373,-4.8216,-4.8194,-4.8195,-4.8176,-4.8118,-4.8103,-4.8027,-4.8095,-4.81,-4.8182,-4.8001,-4.827,-4.8282,-4.8293,-4.8481,-4.851,-4.8536,0,0,0,0,0,-4.8321,-4.8432,-4.8375,-4.8376,-4.8354,-4.8378,-4.8375,-4.8283,-4.8202,-4.8251,-4.8198,-4.8105,-4.8172,-4.8103,-4.8108,-4.8192,-4.8264,-4.8279,-4.8292,-4.8468,-4.8504,-4.8535,0,0,0,0,0,0,-4.8516,-4.8421,-4.8356,-4.8448,-4.8423,-4.8346,-4.8405,-4.8325,-4.8323,-4.8306,-4.8195,-4.8184,-4.8267,-4.8236,-4.8161,-4.8319,-4.8203,-4.8219,-4.8335,-4.8369,-4.8396,-4.8401,-4.8003,0,0,0,0,0,-4.857,-4.8595,-4.8512,-4.86,-4.8591,-4.8501,-4.8508,-4.844,-4.841,-4.8399,-4.8349,-4.8326,-4.8341,-4.8354,-4.8364,-4.8477,-4.8461,-4.8537,-4.8564,-4.8587,-4.8601,-4.8659,-4.8691,-4.8347,-4.8346,-4.8346,0,0,-4.8681,-4.8632,-4.8655,-4.8638,-4.861,-4.8641,-4.8493,-4.8532,-4.8554,-4.8405,-4.8464,-4.8429,-4.8395,-4.8486,-4.8524,-4.8463,-4.8694,-4.8605,-4.8624,-4.8626,-4.8677,-4.8709,-4.8738,-4.8356,-4.8354,-4.8353,0,0,-4.8897,-4.8864,-4.8933,-4.8908,-4.8867,-4.8807,-4.8825,-4.8761,-4.8731,-4.8789,-4.8678,-4.8704,-4.8734,-4.8714,-4.8708,-4.892,-4.8835,-4.8927,-4.907,-4.9127,-4.9154,-4.9177,-4.9252,-4.928,-4.8942,-4.8943,-4.8943,0,-4.9041,-4.908,-4.898,-4.9025,-4.9021,-4.8887,-4.8957,-4.8939,-4.8906,-4.8907,-4.884,-4.8874,-4.8842,-4.8926,-4.8978,-4.8978,-4.8995,-4.8931,-4.9158,-4.918,-4.9201,-4.927,-4.9299,-4.8954,-4.8953,-4.8952,-4.8951,0,-4.9257,-4.9287,-4.9349,-4.9316,-4.932,-4.9379,-4.9289,-4.9306,-4.9239,-4.9187,-4.9248,-4.9206,-4.9204,-4.922,-4.9156,-4.9296,-4.9259,-4.9177,-4.9057,-4.9246,-4.931,-4.9336,-4.897,-4.8966,-4.8963,-4.896,0,0,-4.9591,-4.9504,-4.9528,-4.9512,-4.9459,-4.948,-4.9535,-4.9531,-4.9547,-4.953,-4.9572,-4.9601,-4.9524,-4.9518,-4.9451,-4.9501,-4.9671,-4.9412,-4.941,-4.946,-4.9822,-4.9882,-4.9915,-4.9616,-4.962,-4.9624,-4.9824,0,-4.9793,-4.9875,-4.9788,-4.989,-4.9916,-4.9791,-4.9838,-4.9812,-4.9765,-4.9783,-4.9733,-4.9754,-4.9652,-4.9648,-4.9692,-4.9641,-4.9742,-4.9626,-4.9654,-4.9656,-4.9663,-4.9948,-5.0011,-5.0202,-4.9849,-4.9853,-4.9856,0,-5.0038,-5.003,-5.0134,-5.0074,-5.0082,-5.0125,-5.0115,-5.0133,-5.0102,-5.0065,-5.0059,-4.9978,-5.0028,-4.9914,-4.9982,-4.9905,-4.9913,-4.989,-4.9895,-4.9892,-4.9765,-4.9951,-5.0261,-5.0289,-4.9894,-4.9891,-4.9889,0,-5.0269,-5.0285,-5.0348,-5.0338,-5.0271,-5.0304,-5.0278,-5.0241,-5.0245,-5.0238,-5.024,-5.0241,-5.0241,-5.0244,-5.0166,-5.009,-5.0244,-5.0124,-5.0215,-5.0217,-5.025,-5.0248,-5.0564,-5.026,-5.026,-5.0259,-5.0259,0,-5.0501,-5.0569,-5.045,-5.0489,-5.0562,-5.0464,-5.054,-5.0501,-5.047,-5.05,-5.0395,-5.0426,-5.0322,-5.0344,-5.0284,-5.0349,-5.0351,-5.0323,-5.0306,-5.0331,-5.0334,-5.0331,-5.0315,-5.0267,-5.0265,-5.0264,-5.0262,0,-5.077,-5.0693,-5.0753,-5.0685,-5.0669,-5.0726,-5.0668,-5.0703,-5.0651,-5.0692,-5.0696,-5.0615,-5.0635,-5.0558,-5.0566,-5.0525,-5.0622,-5.0584,-5.0631,-5.0619,-5.0713,-5.0705,-5.1036,-5.1073,-5.0749,-5.0752,-5.0755,0,-5.0921,-5.097,-5.0907,-5.0919,-5.0897,-5.0919,-5.0922,-5.0828,-5.0836,-5.0806,-5.0845,-5.0856,-5.0858,-5.0897,-5.0841,-5.0847,-5.0806,-5.0922,-5.0806,-5.083,-5.0806,-5.0802,-5.0807,-5.0945,-5.0949,-5.0953,-5.0955,0,-5.1198,-5.1158,-5.1165,-5.116,-5.1166,-5.1159,-5.1144,-5.1161,-5.106,-5.1075,-5.1093,-5.1096,-5.1104,-5.1116,-5.1111,-5.1086,-5.1005,-5.0993,-5.1014,-5.1038,-5.1062,-5.1049,-5.0694,-5.0985,-5.0982,-5.098,-5.0978,-5.0977,-5.141,-5.1448,-5.1409,-5.1421,-5.14,-5.1389,-5.1418,-5.1369,-5.1382,-5.1379,-5.1324,-5.1354,-5.1323,-5.1307,-5.1291,-5.1314,-5.126,-5.1291,-5.1298,-5.1307,-5.1322,-5.1062,-5.1313,-5.1312,-5.1311,-5.131,-5.131,0,-5.1679,-5.1648,-5.1661,-5.1642,-5.1653,-5.1575,-5.1556,-5.157,-5.1596,-5.1574,-5.1579,-5.1601,-5.1614,-5.1559,-5.1564,-5.1593,-5.1556,-5.1597,-5.1593,-5.1588,-5.1371,-5.1351,-5.1627,-5.1627,-5.1627,-5.1627,-5.1627,-5.1627,-5.182,-5.1879,-5.1835,-5.1884,-5.1853,-5.1878,-5.1874,-5.1864,-5.1845,-5.1874,-5.1883,-5.1847,-5.1812,-5.1814,-5.1823,-5.1806,-5.1812,-5.1866,-5.1838,-5.1635,-5.1604,-5.1574,-5.1555,-5.1869,-5.187,-5.2052,-5.2054,-5.2056]},{"header":{"parameterUnit":"m.s-1","parameterCategory":1,"la1":30.2991,"la2":30.254,"lo1":-89.0895,"lo2":-89.0444,"dy":0.0017,"dx":0.0017,"nx":28,"ny":28,"refTime":"2024-08-22T21:00:00:Z","depth":0,"parameterNumber":3,"parameterNumberName":"V-component_of_WINDS"},"data":[0,0,0,0,0,0,0,0,0,0,0,0,0,0,0,0,0,0,0,0,0,0,0,0,0,0,0,0,0,0,0,0,0,0,0,0,0,0,0,0,0,0,0,0,0,0,0,0,0,0,0,0,0,0,0,0,0,0,-0.1466,-0.1467,0,-0.1496,-0.1496,-0.1496,-0.1543,-0.1543,-0.1544,-0.1545,-0.1577,-0.1577,-0.1577,0,0,0,0,0,0,0,0,0,0,0,0,0,-0.145,-0.145,-0.1466,-0.1467,-0.1467,-0.1496,-0.1496,-0.1496,-0.1543,-0.1544,-0.1545,-0.1545,-0.1577,-0.1577,-0.1577,0,0,0,0,0,0,0,0,0,0,0,0,0,-0.1466,-0.145,-0.1466,-0.1494,-0.1496,-0.1495,-0.1496,-0.1496,-0.1542,-0.1544,-0.1545,-0.1546,-0.1576,-0.1577,-0.1577,-0.1552,0,0,-0.1577,-0.1577,0,0,0,0,0,0,0,0,-0.1465,-0.1466,-0.1489,-0.1492,-0.1495,-0.1517,-0.1502,-0.1515,-0.1542,-0.1525,-0.1545,-0.1547,-0.1556,-0.1558,-0.156,-0.1554,-0.1555,-0.1577,-0.1577,-0.1577,-0.1577,0,0,0,0,0,0,0,-0.1464,-0.1465,-0.1478,-0.1489,-0.1493,-0.1504,-0.1508,-0.1504,-0.1533,-0.1526,-0.153,-0.1533,-0.1558,-0.156,-0.1561,-0.1555,-0.1577,-0.1577,-0.1577,-0.1577,-0.1526,-0.1525,0,0,0,0,0,0,-0.1459,-0.1464,-0.1477,-0.1479,-0.1483,-0.1503,-0.1507,-0.1508,-0.1533,-0.1538,-0.1531,-0.1535,-0.1559,-0.1561,-0.1563,-0.1534,-0.1577,-0.1577,-0.1577,-0.1528,-0.1526,-0.1525,0,0,0,0,0,0,-0.1458,-0.1459,-0.1476,-0.1472,-0.1475,-0.1502,-0.1503,-0.1508,-0.1511,-0.1537,-0.1542,-0.1529,-0.156,-0.1563,-0.1554,-0.1535,-0.1577,-0.1577,-0.1529,-0.1527,-0.1525,-0.1476,0,0,0,0,0,0,-0.1457,-0.1459,-0.145,-0.1472,-0.1475,-0.1466,-0.1502,-0.1508,-0.1511,-0.1515,-0.1536,-0.1541,-0.1562,-0.1553,-0.1554,-0.1536,-0.1577,-0.1531,-0.1529,-0.1526,-0.1479,-0.1472,-0.1467,0,0,0,0,0,-0.1457,-0.1436,-0.145,-0.1451,-0.1465,-0.1465,-0.1467,-0.1491,-0.1509,-0.15,-0.1516,-0.154,-0.1537,-0.1552,-0.1553,-0.1535,-0.1533,-0.1529,-0.1526,-0.1482,-0.1474,-0.1467,0,0,0,0,0,0,-0.1413,-0.144,-0.1455,-0.1441,-0.145,-0.1473,-0.1463,-0.1482,-0.1487,-0.1491,-0.1521,-0.1526,-0.1512,-0.1523,-0.1539,-0.1511,-0.1538,-0.1535,-0.1504,-0.1497,-0.149,-0.1488,-0.1577,0,0,0,0,0,-0.1402,-0.14,-0.1423,-0.1408,-0.1412,-0.1436,-0.1437,-0.1455,-0.1466,-0.1471,-0.1486,-0.1496,-0.1497,-0.1498,-0.1501,-0.1481,-0.1485,-0.1469,-0.1463,-0.1457,-0.1454,-0.1442,-0.1434,-0.1514,-0.1514,-0.1514,0,0,-0.1379,-0.1393,-0.139,-0.14,-0.1409,-0.1405,-0.144,-0.1435,-0.1433,-0.147,-0.1462,-0.1473,-0.1486,-0.1471,-0.1465,-0.148,-0.1433,-0.1453,-0.1449,-0.1449,-0.1438,-0.143,-0.1423,-0.1512,-0.1513,-0.1513,0,0,-0.1335,-0.1346,-0.1333,-0.1341,-0.1354,-0.137,-0.1367,-0.1386,-0.1394,-0.1386,-0.1413,-0.141,-0.1413,-0.142,-0.1424,-0.1378,-0.1399,-0.1378,-0.1345,-0.1333,-0.1326,-0.1321,-0.1303,-0.1296,-0.1375,-0.1375,-0.1375,0,-0.1305,-0.13,-0.1325,-0.1317,-0.132,-0.1352,-0.1339,-0.1346,-0.1359,-0.136,-0.1376,-0.1376,-0.1388,-0.1373,-0.1362,-0.1365,-0.1361,-0.1376,-0.1325,-0.132,-0.1315,-0.1298,-0.1292,-0.1372,-0.1373,-0.1373,-0.1373,0,-0.1261,-0.1258,-0.1246,-0.1256,-0.1258,-0.1248,-0.127,-0.1268,-0.1284,-0.1298,-0.1288,-0.1302,-0.1306,-0.1304,-0.1321,-0.1291,-0.13,-0.132,-0.1348,-0.1304,-0.1289,-0.1283,-0.1368,-0.1369,-0.137,-0.1371,0,0,-0.1193,-0.1214,-0.121,-0.1213,-0.1228,-0.1226,-0.1216,-0.1219,-0.1216,-0.1224,-0.1215,-0.1214,-0.1232,-0.1236,-0.1254,-0.1243,-0.1203,-0.1264,-0.1265,-0.1251,-0.1169,-0.1153,-0.1145,-0.1217,-0.1216,-0.1215,-0.1167,0,-0.1151,-0.1136,-0.1156,-0.1136,-0.1131,-0.116,-0.1151,-0.1159,-0.117,-0.1168,-0.1181,-0.1179,-0.1204,-0.1206,-0.1196,-0.121,-0.1187,-0.1214,-0.1209,-0.1209,-0.1204,-0.1138,-0.1122,-0.1076,-0.1162,-0.1161,-0.116,0,-0.1101,-0.1104,-0.1083,-0.1096,-0.1095,-0.1086,-0.1089,-0.1087,-0.1095,-0.1104,-0.1107,-0.1127,-0.1117,-0.1144,-0.113,-0.1148,-0.1147,-0.1153,-0.1152,-0.1152,-0.1181,-0.1135,-0.1062,-0.1055,-0.1151,-0.1152,-0.1152,0,-0.1051,-0.105,-0.1036,-0.1039,-0.1054,-0.1047,-0.1053,-0.1063,-0.1062,-0.1065,-0.1065,-0.1066,-0.1067,-0.1068,-0.1087,-0.1105,-0.107,-0.1099,-0.1076,-0.1076,-0.1068,-0.1068,-0.0993,-0.1068,-0.1068,-0.1068,-0.1069,0,-0.1003,-0.0988,-0.1013,-0.1005,-0.0989,-0.1011,-0.0995,-0.1004,-0.1011,-0.1004,-0.1029,-0.1022,-0.1048,-0.1044,-0.1059,-0.1044,-0.1044,-0.1051,-0.1055,-0.1048,-0.1047,-0.1048,-0.1051,-0.1067,-0.1067,-0.1067,-0.1068,0,-0.0945,-0.0961,-0.0948,-0.0962,-0.0965,-0.0953,-0.0965,-0.0957,-0.0969,-0.096,-0.0959,-0.0978,-0.0973,-0.0992,-0.0992,-0.1002,-0.0978,-0.0988,-0.0975,-0.0978,-0.0954,-0.0955,-0.0876,-0.0866,-0.0948,-0.0947,-0.0947,0,-0.0912,-0.0901,-0.0914,-0.091,-0.0914,-0.0909,-0.0908,-0.0929,-0.0926,-0.0933,-0.0924,-0.0921,-0.092,-0.0911,-0.0925,-0.0924,-0.0933,-0.0905,-0.0933,-0.0926,-0.0931,-0.0931,-0.0929,-0.0899,-0.0898,-0.0898,-0.0897,0,-0.0852,-0.086,-0.0857,-0.0856,-0.0853,-0.0854,-0.0856,-0.0852,-0.0874,-0.087,-0.0865,-0.0864,-0.0861,-0.0858,-0.0859,-0.0865,-0.0884,-0.0888,-0.0882,-0.0875,-0.0867,-0.0869,-0.0958,-0.089,-0.089,-0.0891,-0.0891,-0.0892,-0.0805,-0.0796,-0.0802,-0.0797,-0.08,-0.0801,-0.0793,-0.0803,-0.0799,-0.0798,-0.081,-0.0802,-0.0808,-0.0811,-0.0814,-0.0807,-0.0821,-0.0813,-0.0811,-0.0809,-0.0804,-0.0868,-0.0808,-0.0808,-0.0808,-0.0809,-0.0809,0,-0.0745,-0.075,-0.0745,-0.0746,-0.0741,-0.0758,-0.0761,-0.0756,-0.0748,-0.0751,-0.0748,-0.0741,-0.0737,-0.0748,-0.0746,-0.0738,-0.0746,-0.0736,-0.0737,-0.0737,-0.0793,-0.0797,-0.0729,-0.0729,-0.0729,-0.0729,-0.0729,-0.0729,-0.0714,-0.0698,-0.0705,-0.069,-0.0695,-0.0686,-0.0685,-0.0685,-0.0688,-0.0678,-0.0674,-0.0681,-0.0687,-0.0684,-0.068,-0.0684,-0.0681,-0.0668,-0.0674,-0.0726,-0.0734,-0.0741,-0.0745,-0.0667,-0.0667,-0.0619,-0.0619,-0.0618]}]]